Location: PSU-Greenbush Astrophysical Observatory
(37.5140°N, 94.9880°W)
Time: 17:30:59
(UTC-06:00)

deb Explorer IX - Pass Details

Date: 27 January 2020
Orbit: 549 x 1099 km, 38.8° (Epoch: 24 February)

Event Time Altitude Azimuth Distance (km) Brightness Sun altitude
Rises 22:55:06 0° 269° (W) 3,745 - -61.3°
Reaches altitude 10° 22:57:43 10° 270° (W) 2,847 - -61.7°
Maximum altitude 23:04:49 81° 358° (N) 1,107 - -62.8°
Drops below altitude 10° 23:12:09 10° 86° (E) 2,935 - -63.9°
Sets 23:14:53 0° 87° (E) 3,866 - -64.3°
